Year,Month,Day,Hour,Minute,Value (Times are PST for insolation in W/m^2)
2013,05,31,00,00,0.00
2013,05,31,00,01,0.00
2013,05,31,00,02,0.00
2013,05,31,00,03,0.00
2013,05,31,00,04,0.00
2013,05,31,00,05,0.00
2013,05,31,00,06,0.00
2013,05,31,00,07,0.00
2013,05,31,00,08,0.00
2013,05,31,00,09,0.00
2013,05,31,00,10,0.00
2013,05,31,00,11,0.00
2013,05,31,00,12,0.00
2013,05,31,00,13,0.00
2013,05,31,00,14,0.00
2013,05,31,00,15,0.00
2013,05,31,00,16,0.00
2013,05,31,00,17,0.00
2013,05,31,00,18,0.00
2013,05,31,00,19,0.00
2013,05,31,00,20,0.00
2013,05,31,00,21,0.00
2013,05,31,00,22,0.00
2013,05,31,00,23,0.00
2013,05,31,00,24,0.00
2013,05,31,00,25,0.00
2013,05,31,00,26,0.00
2013,05,31,00,27,0.00
2013,05,31,00,28,0.00
2013,05,31,00,29,0.00
2013,05,31,00,30,0.00
2013,05,31,00,31,0.00
2013,05,31,00,32,0.00
2013,05,31,00,33,0.00
2013,05,31,00,34,0.00
2013,05,31,00,35,0.00
2013,05,31,00,36,0.00
2013,05,31,00,37,0.00
2013,05,31,00,38,0.00
2013,05,31,00,39,0.00
2013,05,31,00,40,0.00
2013,05,31,00,41,0.00
2013,05,31,00,42,0.00
2013,05,31,00,43,0.00
2013,05,31,00,44,0.00
2013,05,31,00,45,0.00
2013,05,31,00,46,0.00
2013,05,31,00,47,0.00
2013,05,31,00,48,0.00
2013,05,31,00,49,0.00
2013,05,31,00,50,0.00
2013,05,31,00,51,0.00
2013,05,31,00,52,0.00
2013,05,31,00,53,0.00
2013,05,31,00,54,0.00
2013,05,31,00,55,0.00
2013,05,31,00,56,0.00
2013,05,31,00,57,0.00
2013,05,31,00,58,0.00
2013,05,31,00,59,0.00
2013,05,31,01,00,0.00
2013,05,31,01,01,0.00
2013,05,31,01,02,0.00
2013,05,31,01,03,0.00
2013,05,31,01,04,0.00
2013,05,31,01,05,0.00
2013,05,31,01,06,0.00
2013,05,31,01,07,0.00
2013,05,31,01,08,0.00
2013,05,31,01,09,0.00
2013,05,31,01,10,0.00
2013,05,31,01,11,0.00
2013,05,31,01,12,0.00
2013,05,31,01,13,0.00
2013,05,31,01,14,0.00
2013,05,31,01,15,0.00
2013,05,31,01,16,0.00
2013,05,31,01,17,0.00
2013,05,31,01,18,0.00
2013,05,31,01,19,0.00
2013,05,31,01,20,0.00
2013,05,31,01,21,0.00
2013,05,31,01,22,0.00
2013,05,31,01,23,0.00
2013,05,31,01,24,0.00
2013,05,31,01,25,0.00
2013,05,31,01,26,0.00
2013,05,31,01,27,0.00
2013,05,31,01,28,0.00
2013,05,31,01,29,0.00
2013,05,31,01,30,0.00
2013,05,31,01,31,0.00
2013,05,31,01,32,0.00
2013,05,31,01,33,0.00
2013,05,31,01,34,0.00
2013,05,31,01,35,0.00
2013,05,31,01,36,0.00
2013,05,31,01,37,0.00
2013,05,31,01,38,0.00
2013,05,31,01,39,0.00
2013,05,31,01,40,0.00
2013,05,31,01,41,0.00
2013,05,31,01,42,0.00
2013,05,31,01,43,0.00
2013,05,31,01,44,0.00
2013,05,31,01,45,0.00
2013,05,31,01,46,0.00
2013,05,31,01,47,0.00
2013,05,31,01,48,0.00
2013,05,31,01,49,0.00
2013,05,31,01,50,0.00
2013,05,31,01,51,0.00
2013,05,31,01,52,0.00
2013,05,31,01,53,0.00
2013,05,31,01,54,0.00
2013,05,31,01,55,0.00
2013,05,31,01,56,0.00
2013,05,31,01,57,0.00
2013,05,31,01,58,0.00
2013,05,31,01,59,0.00
2013,05,31,02,00,0.00
2013,05,31,02,01,0.00
2013,05,31,02,02,0.00
2013,05,31,02,03,0.00
2013,05,31,02,04,0.00
2013,05,31,02,05,0.00
2013,05,31,02,06,0.00
2013,05,31,02,07,0.00
2013,05,31,02,08,0.00
2013,05,31,02,09,0.00
2013,05,31,02,10,0.00
2013,05,31,02,11,0.00
2013,05,31,02,12,0.00
2013,05,31,02,13,0.00
2013,05,31,02,14,0.00
2013,05,31,02,15,0.00
2013,05,31,02,16,0.00
2013,05,31,02,17,0.00
2013,05,31,02,18,0.00
2013,05,31,02,19,0.00
2013,05,31,02,20,0.00
2013,05,31,02,21,0.00
2013,05,31,02,22,0.00
2013,05,31,02,23,0.00
2013,05,31,02,24,0.00
2013,05,31,02,25,0.00
2013,05,31,02,26,0.00
2013,05,31,02,27,0.00
2013,05,31,02,28,0.00
2013,05,31,02,29,0.00
2013,05,31,02,30,0.00
2013,05,31,02,31,0.00
2013,05,31,02,32,0.00
2013,05,31,02,33,0.00
2013,05,31,02,34,0.00
2013,05,31,02,35,0.00
2013,05,31,02,36,0.00
2013,05,31,02,37,0.00
2013,05,31,02,38,0.00
2013,05,31,02,39,0.00
2013,05,31,02,40,0.00
2013,05,31,02,41,0.00
2013,05,31,02,42,0.00
2013,05,31,02,43,0.00
2013,05,31,02,44,0.00
2013,05,31,02,45,0.00
2013,05,31,02,46,0.00
2013,05,31,02,47,0.00
2013,05,31,02,48,0.00
2013,05,31,02,49,0.00
2013,05,31,02,50,0.00
2013,05,31,02,51,0.00
2013,05,31,02,52,0.00
2013,05,31,02,53,0.00
2013,05,31,02,54,0.00
2013,05,31,02,55,0.00
2013,05,31,02,56,0.00
2013,05,31,02,57,0.00
2013,05,31,02,58,0.00
2013,05,31,02,59,0.00
2013,05,31,03,00,0.00
2013,05,31,03,01,0.00
2013,05,31,03,02,0.00
2013,05,31,03,03,0.00
2013,05,31,03,04,0.00
2013,05,31,03,05,0.00
2013,05,31,03,06,0.00
2013,05,31,03,07,0.00
2013,05,31,03,08,0.00
2013,05,31,03,09,0.00
2013,05,31,03,10,0.00
2013,05,31,03,11,0.00
2013,05,31,03,12,0.00
2013,05,31,03,13,0.00
2013,05,31,03,14,0.00
2013,05,31,03,15,0.00
2013,05,31,03,16,0.00
2013,05,31,03,17,0.00
2013,05,31,03,18,0.00
2013,05,31,03,19,0.00
2013,05,31,03,20,0.00
2013,05,31,03,21,0.00
2013,05,31,03,22,0.00
2013,05,31,03,23,0.00
2013,05,31,03,24,0.00
2013,05,31,03,25,0.00
2013,05,31,03,26,0.00
2013,05,31,03,27,0.00
2013,05,31,03,28,0.00
2013,05,31,03,29,0.00
2013,05,31,03,30,0.00
2013,05,31,03,31,0.00
2013,05,31,03,32,0.00
2013,05,31,03,33,0.00
2013,05,31,03,34,0.00
2013,05,31,03,35,0.00
2013,05,31,03,36,0.00
2013,05,31,03,37,0.00
2013,05,31,03,38,0.00
2013,05,31,03,39,0.00
2013,05,31,03,40,0.00
2013,05,31,03,41,0.00
2013,05,31,03,42,0.00
2013,05,31,03,43,0.00
2013,05,31,03,44,0.00
2013,05,31,03,45,0.00
2013,05,31,03,46,0.00
2013,05,31,03,47,0.00
2013,05,31,03,48,0.00
2013,05,31,03,49,0.00
2013,05,31,03,50,0.00
2013,05,31,03,51,0.00
2013,05,31,03,52,0.00
2013,05,31,03,53,0.00
2013,05,31,03,54,0.00
2013,05,31,03,55,0.00
2013,05,31,03,56,0.00
2013,05,31,03,57,0.00
2013,05,31,03,58,0.00
2013,05,31,03,59,0.00
2013,05,31,04,00,0.00
2013,05,31,04,01,0.00
2013,05,31,04,02,0.00
2013,05,31,04,03,0.00
2013,05,31,04,04,0.00
2013,05,31,04,05,0.00
2013,05,31,04,06,0.00
2013,05,31,04,07,0.00
2013,05,31,04,08,0.00
2013,05,31,04,09,0.00
2013,05,31,04,10,0.00
2013,05,31,04,11,0.00
2013,05,31,04,12,0.00
2013,05,31,04,13,0.00
2013,05,31,04,14,0.00
2013,05,31,04,15,0.00
2013,05,31,04,16,0.00
2013,05,31,04,17,0.00
2013,05,31,04,18,0.00
2013,05,31,04,19,0.00
2013,05,31,04,20,0.00
2013,05,31,04,21,0.00
2013,05,31,04,22,0.00
2013,05,31,04,23,0.00
2013,05,31,04,24,0.00
2013,05,31,04,25,0.00
2013,05,31,04,26,0.00
2013,05,31,04,27,0.00
2013,05,31,04,28,0.00
2013,05,31,04,29,0.00
2013,05,31,04,30,0.00
2013,05,31,04,31,0.00
2013,05,31,04,32,0.00
2013,05,31,04,33,0.00
2013,05,31,04,34,0.00
2013,05,31,04,35,0.00
2013,05,31,04,36,0.00
2013,05,31,04,37,0.00
2013,05,31,04,38,0.00
2013,05,31,04,39,0.00
2013,05,31,04,40,0.00
2013,05,31,04,41,0.00
2013,05,31,04,42,0.00
2013,05,31,04,43,0.00
2013,05,31,04,44,0.00
2013,05,31,04,45,0.00
2013,05,31,04,46,0.00
2013,05,31,04,47,0.00
2013,05,31,04,48,0.00
2013,05,31,04,49,0.00
2013,05,31,04,50,0.00
2013,05,31,04,51,0.00
2013,05,31,04,52,0.00
2013,05,31,04,53,0.00
2013,05,31,04,54,0.00
2013,05,31,04,55,0.00
2013,05,31,04,56,0.00
2013,05,31,04,57,0.00
2013,05,31,04,58,0.00
2013,05,31,04,59,0.00
2013,05,31,05,00,0.00
2013,05,31,05,01,0.00
2013,05,31,05,02,0.00
2013,05,31,05,03,0.00
2013,05,31,05,04,0.00
2013,05,31,05,05,0.00
2013,05,31,05,06,0.00
2013,05,31,05,07,0.00
2013,05,31,05,08,0.00
2013,05,31,05,09,0.00
2013,05,31,05,10,0.00
2013,05,31,05,11,0.00
2013,05,31,05,12,0.00
2013,05,31,05,13,0.00
2013,05,31,05,14,0.00
2013,05,31,05,15,0.00
2013,05,31,05,16,0.00
2013,05,31,05,17,0.00
2013,05,31,05,18,0.00
2013,05,31,05,19,0.00
2013,05,31,05,20,0.00
2013,05,31,05,21,0.00
2013,05,31,05,22,0.00
2013,05,31,05,23,0.00
2013,05,31,05,24,0.00
2013,05,31,05,25,0.50
2013,05,31,05,26,5.00
2013,05,31,05,27,5.00
2013,05,31,05,28,5.00
2013,05,31,05,29,5.50
2013,05,31,05,30,7.00
2013,05,31,05,31,7.00
2013,05,31,05,32,7.00
2013,05,31,05,33,7.00
2013,05,31,05,34,7.80
2013,05,31,05,35,9.00
2013,05,31,05,36,9.00
2013,05,31,05,37,9.00
2013,05,31,05,38,9.00
2013,05,31,05,39,10.40
2013,05,31,05,40,11.00
2013,05,31,05,41,11.00
2013,05,31,05,42,11.00
2013,05,31,05,43,11.00
2013,05,31,05,44,11.00
2013,05,31,05,45,11.00
2013,05,31,05,46,11.00
2013,05,31,05,47,11.10
2013,05,31,05,48,12.00
2013,05,31,05,49,12.20
2013,05,31,05,50,14.00
2013,05,31,05,51,14.00
2013,05,31,05,52,14.00
2013,05,31,05,53,14.60
2013,05,31,05,54,16.00
2013,05,31,05,55,16.70
2013,05,31,05,56,18.40
2013,05,31,05,57,19.00
2013,05,31,05,58,19.90
2013,05,31,05,59,21.00
2013,05,31,06,00,22.20
2013,05,31,06,01,23.00
2013,05,31,06,02,24.30
2013,05,31,06,03,25.00
2013,05,31,06,04,25.70
2013,05,31,06,05,26.00
2013,05,31,06,06,27.70
2013,05,31,06,07,28.00
2013,05,31,06,08,28.00
2013,05,31,06,09,29.90
2013,05,31,06,10,30.00
2013,05,31,06,11,30.20
2013,05,31,06,12,32.00
2013,05,31,06,13,32.00
2013,05,31,06,14,32.00
2013,05,31,06,15,32.00
2013,05,31,06,16,32.00
2013,05,31,06,17,32.00
2013,05,31,06,18,32.30
2013,05,31,06,19,33.00
2013,05,31,06,20,33.00
2013,05,31,06,21,33.00
2013,05,31,06,22,34.10
2013,05,31,06,23,35.00
2013,05,31,06,24,35.00
2013,05,31,06,25,35.00
2013,05,31,06,26,35.00
2013,05,31,06,27,35.00
2013,05,31,06,28,35.00
2013,05,31,06,29,35.00
2013,05,31,06,30,33.30
2013,05,31,06,31,32.10
2013,05,31,06,32,32.00
2013,05,31,06,33,30.10
2013,05,31,06,34,29.90
2013,05,31,06,35,28.00
2013,05,31,06,36,28.00
2013,05,31,06,37,27.60
2013,05,31,06,38,26.00
2013,05,31,06,39,25.70
2013,05,31,06,40,25.00
2013,05,31,06,41,24.30
2013,05,31,06,42,23.00
2013,05,31,06,43,23.00
2013,05,31,06,44,23.00
2013,05,31,06,45,23.00
2013,05,31,06,46,23.00
2013,05,31,06,47,21.70
2013,05,31,06,48,21.00
2013,05,31,06,49,21.00
2013,05,31,06,50,22.40
2013,05,31,06,51,23.00
2013,05,31,06,52,24.60
2013,05,31,06,53,25.00
2013,05,31,06,54,25.90
2013,05,31,06,55,27.90
2013,05,31,06,56,29.90
2013,05,31,06,57,32.00
2013,05,31,06,58,32.00
2013,05,31,06,59,32.00
2013,05,31,07,00,31.70
2013,05,31,07,01,29.60
2013,05,31,07,02,27.50
2013,05,31,07,03,25.10
2013,05,31,07,04,22.30
2013,05,31,07,05,21.00
2013,05,31,07,06,21.00
2013,05,31,07,07,21.00
2013,05,31,07,08,21.00
2013,05,31,07,09,22.10
2013,05,31,07,10,24.20
2013,05,31,07,11,25.60
2013,05,31,07,12,27.40
2013,05,31,07,13,28.00
2013,05,31,07,14,29.50
2013,05,31,07,15,31.70
2013,05,31,07,16,32.80
2013,05,31,07,17,33.00
2013,05,31,07,18,34.90
2013,05,31,07,19,35.00
2013,05,31,07,20,37.10
2013,05,31,07,21,39.00
2013,05,31,07,22,39.20
2013,05,31,07,23,40.00
2013,05,31,07,24,40.00
2013,05,31,07,25,40.00
2013,05,31,07,26,40.00
2013,05,31,07,27,40.70
2013,05,31,07,28,42.00
2013,05,31,07,29,42.80
2013,05,31,07,30,44.90
2013,05,31,07,31,46.50
2013,05,31,07,32,48.10
2013,05,31,07,33,50.20
2013,05,31,07,34,52.30
2013,05,31,07,35,53.70
2013,05,31,07,36,56.70
2013,05,31,07,37,59.50
2013,05,31,07,38,61.60
2013,05,31,07,39,62.00
2013,05,31,07,40,62.90
2013,05,31,07,41,64.80
2013,05,31,07,42,67.10
2013,05,31,07,43,70.10
2013,05,31,07,44,72.20
2013,05,31,07,45,74.40
2013,05,31,07,46,77.30
2013,05,31,07,47,79.40
2013,05,31,07,48,81.50
2013,05,31,07,49,83.30
2013,05,31,07,50,84.00
2013,05,31,07,51,84.00
2013,05,31,07,52,84.80
2013,05,31,07,53,86.00
2013,05,31,07,54,87.10
2013,05,31,07,55,88.00
2013,05,31,07,56,89.20
2013,05,31,07,57,90.00
2013,05,31,07,58,90.70
2013,05,31,07,59,92.50
2013,05,31,08,00,93.00
2013,05,31,08,01,94.60
2013,05,31,08,02,96.70
2013,05,31,08,03,97.90
2013,05,31,08,04,99.80
2013,05,31,08,05,102.10
2013,05,31,08,06,105.10
2013,05,31,08,07,107.40
2013,05,31,08,08,111.30
2013,05,31,08,09,114.80
2013,05,31,08,10,118.40
2013,05,31,08,11,120.80
2013,05,31,08,12,124.10
2013,05,31,08,13,128.80
2013,05,31,08,14,134.10
2013,05,31,08,15,139.10
2013,05,31,08,16,143.90
2013,05,31,08,17,147.00
2013,05,31,08,18,148.60
2013,05,31,08,19,150.20
2013,05,31,08,20,152.30
2013,05,31,08,21,154.40
2013,05,31,08,22,155.70
2013,05,31,08,23,156.00
2013,05,31,08,24,157.60
2013,05,31,08,25,159.70
2013,05,31,08,26,160.00
2013,05,31,08,27,161.80
2013,05,31,08,28,162.00
2013,05,31,08,29,162.00
2013,05,31,08,30,162.00
2013,05,31,08,31,162.00
2013,05,31,08,32,162.00
2013,05,31,08,33,162.00
2013,05,31,08,34,161.50
2013,05,31,08,35,160.00
2013,05,31,08,36,160.00
2013,05,31,08,37,160.70
2013,05,31,08,38,163.20
2013,05,31,08,39,166.90
2013,05,31,08,40,170.60
2013,05,31,08,41,174.10
2013,05,31,08,42,177.80
2013,05,31,08,43,181.50
2013,05,31,08,44,184.40
2013,05,31,08,45,185.70
2013,05,31,08,46,187.50
2013,05,31,08,47,191.20
2013,05,31,08,48,196.20
2013,05,31,08,49,201.20
2013,05,31,08,50,208.60
2013,05,31,08,51,215.60
2013,05,31,08,52,221.40
2013,05,31,08,53,229.50
2013,05,31,08,54,234.50
2013,05,31,08,55,239.80
2013,05,31,08,56,245.50
2013,05,31,08,57,253.20
2013,05,31,08,58,265.10
2013,05,31,08,59,300.90
2013,05,31,09,00,355.00
2013,05,31,09,01,411.80
2013,05,31,09,02,458.20
2013,05,31,09,03,457.20
2013,05,31,09,04,491.40
2013,05,31,09,05,480.00
2013,05,31,09,06,530.40
2013,05,31,09,07,498.30
2013,05,31,09,08,489.70
2013,05,31,09,09,499.00
2013,05,31,09,10,499.00
2013,05,31,09,11,479.60
2013,05,31,09,12,391.80
2013,05,31,09,13,382.30
2013,05,31,09,14,383.00
2013,05,31,09,15,390.00
2013,05,31,09,16,524.00
2013,05,31,09,17,547.30
2013,05,31,09,18,745.00
2013,05,31,09,19,714.00
2013,05,31,09,20,644.90
2013,05,31,09,21,714.10
2013,05,31,09,22,719.00
2013,05,31,09,23,719.00
2013,05,31,09,24,719.80
2013,05,31,09,25,721.00
2013,05,31,09,26,721.00
2013,05,31,09,27,741.30
2013,05,31,09,28,758.00
2013,05,31,09,29,761.20
2013,05,31,09,30,780.80
2013,05,31,09,31,789.00
2013,05,31,09,32,789.00
2013,05,31,09,33,764.20
2013,05,31,09,34,715.90
2013,05,31,09,35,708.00
2013,05,31,09,36,341.70
2013,05,31,09,37,301.00
2013,05,31,09,38,452.00
2013,05,31,09,39,489.90
2013,05,31,09,40,805.10
2013,05,31,09,41,761.60
2013,05,31,09,42,737.80
2013,05,31,09,43,747.00
2013,05,31,09,44,775.00
2013,05,31,09,45,775.00
2013,05,31,09,46,775.00
2013,05,31,09,47,617.50
2013,05,31,09,48,401.00
2013,05,31,09,49,593.50
2013,05,31,09,50,791.30
2013,05,31,09,51,790.20
2013,05,31,09,52,771.50
2013,05,31,09,53,767.50
2013,05,31,09,54,702.30
2013,05,31,09,55,743.80
2013,05,31,09,56,798.80
2013,05,31,09,57,815.50
2013,05,31,09,58,810.20
2013,05,31,09,59,790.10
2013,05,31,10,00,786.20
2013,05,31,10,01,776.50
2013,05,31,10,02,768.40
2013,05,31,10,03,775.90
2013,05,31,10,04,784.00
2013,05,31,10,05,784.00
2013,05,31,10,06,782.90
2013,05,31,10,07,781.60
2013,05,31,10,08,790.40
2013,05,31,10,09,810.50
2013,05,31,10,10,830.00
2013,05,31,10,11,830.00
2013,05,31,10,12,517.00
2013,05,31,10,13,195.60
2013,05,31,10,14,183.80
2013,05,31,10,15,186.70
2013,05,31,10,16,202.00
2013,05,31,10,17,207.60
2013,05,31,10,18,208.50
2013,05,31,10,19,220.20
2013,05,31,10,20,234.80
2013,05,31,10,21,226.30
2013,05,31,10,22,226.80
2013,05,31,10,23,209.90
2013,05,31,10,24,205.10
2013,05,31,10,25,224.60
2013,05,31,10,26,217.10
2013,05,31,10,27,209.00
2013,05,31,10,28,209.00
2013,05,31,10,29,375.20
2013,05,31,10,30,874.00
2013,05,31,10,31,874.00
2013,05,31,10,32,874.00
2013,05,31,10,33,866.80
2013,05,31,10,34,867.90
2013,05,31,10,35,877.90
2013,05,31,10,36,872.30
2013,05,31,10,37,873.20
2013,05,31,10,38,879.50
2013,05,31,10,39,881.60
2013,05,31,10,40,884.80
2013,05,31,10,41,889.70
2013,05,31,10,42,894.90
2013,05,31,10,43,895.20
2013,05,31,10,44,895.80
2013,05,31,10,45,893.30
2013,05,31,10,46,902.00
2013,05,31,10,47,895.00
2013,05,31,10,48,895.00
2013,05,31,10,49,895.00
2013,05,31,10,50,895.00
2013,05,31,10,51,895.00
2013,05,31,10,52,895.30
2013,05,31,10,53,898.40
2013,05,31,10,54,906.40
2013,05,31,10,55,906.90
2013,05,31,10,56,909.90
2013,05,31,10,57,916.10
2013,05,31,10,58,913.00
2013,05,31,10,59,912.00
2013,05,31,11,00,913.20
2013,05,31,11,01,909.60
2013,05,31,11,02,905.00
2013,05,31,11,03,897.40
2013,05,31,11,04,888.20
2013,05,31,11,05,890.20
2013,05,31,11,06,883.40
2013,05,31,11,07,883.70
2013,05,31,11,08,877.70
2013,05,31,11,09,823.00
2013,05,31,11,10,823.00
2013,05,31,11,11,823.00
2013,05,31,11,12,823.00
2013,05,31,11,13,823.00
2013,05,31,11,14,823.00
2013,05,31,11,15,823.00
2013,05,31,11,16,823.00
2013,05,31,11,17,823.00
2013,05,31,11,18,823.00
2013,05,31,11,19,830.20
2013,05,31,11,20,869.40
2013,05,31,11,21,887.80
2013,05,31,11,22,893.90
2013,05,31,11,23,915.10
2013,05,31,11,24,918.00
2013,05,31,11,25,920.10
2013,05,31,11,26,924.40
2013,05,31,11,27,926.00
2013,05,31,11,28,933.20
2013,05,31,11,29,950.20
2013,05,31,11,30,953.00
2013,05,31,11,31,953.00
2013,05,31,11,32,953.00
2013,05,31,11,33,953.00
2013,05,31,11,34,953.00
2013,05,31,11,35,837.30
2013,05,31,11,36,218.30
2013,05,31,11,37,217.80
2013,05,31,11,38,244.00
2013,05,31,11,39,244.00
2013,05,31,11,40,244.00
2013,05,31,11,41,244.00
2013,05,31,11,42,236.00
2013,05,31,11,43,236.20
2013,05,31,11,44,267.40
2013,05,31,11,45,308.90
2013,05,31,11,46,355.50
2013,05,31,11,47,374.00
2013,05,31,11,48,374.00
2013,05,31,11,49,374.00
2013,05,31,11,50,374.00
2013,05,31,11,51,374.00
2013,05,31,11,52,374.00
2013,05,31,11,53,1042.10
2013,05,31,11,54,1122.10
2013,05,31,11,55,1120.00
2013,05,31,11,56,793.00
2013,05,31,11,57,762.70
2013,05,31,11,58,487.80
2013,05,31,11,59,473.10
2013,05,31,12,00,459.50
2013,05,31,12,01,447.60
2013,05,31,12,02,440.40
2013,05,31,12,03,439.00
2013,05,31,12,04,438.60
2013,05,31,12,05,437.20
2013,05,31,12,06,436.00
2013,05,31,12,07,436.00
2013,05,31,12,08,437.60
2013,05,31,12,09,439.00
2013,05,31,12,10,439.00
2013,05,31,12,11,436.90
2013,05,31,12,12,434.60
2013,05,31,12,13,432.40
2013,05,31,12,14,431.20
2013,05,31,12,15,431.80
2013,05,31,12,16,435.60
2013,05,31,12,17,444.10
2013,05,31,12,18,457.00
2013,05,31,12,19,474.00
2013,05,31,12,20,495.20
2013,05,31,12,21,528.80
2013,05,31,12,22,592.80
2013,05,31,12,23,639.40
2013,05,31,12,24,716.60
2013,05,31,12,25,732.70
2013,05,31,12,26,686.70
2013,05,31,12,27,686.00
2013,05,31,12,28,769.60
2013,05,31,12,29,895.00
2013,05,31,12,30,779.50
2013,05,31,12,31,677.80
2013,05,31,12,32,689.00
2013,05,31,12,33,689.00
2013,05,31,12,34,1108.20
2013,05,31,12,35,1395.20
2013,05,31,12,36,1402.80
2013,05,31,12,37,1384.00
2013,05,31,12,38,1380.00
2013,05,31,12,39,1380.00
2013,05,31,12,40,1380.00
2013,05,31,12,41,1380.00
2013,05,31,12,42,1085.00
2013,05,31,12,43,1123.00
2013,05,31,12,44,1075.00
2013,05,31,12,45,803.70
2013,05,31,12,46,704.60
2013,05,31,12,47,629.70
2013,05,31,12,48,615.00
2013,05,31,12,49,615.00
2013,05,31,12,50,778.20
2013,05,31,12,51,1058.80
2013,05,31,12,52,1060.00
2013,05,31,12,53,735.50
2013,05,31,12,54,405.20
2013,05,31,12,55,392.90
2013,05,31,12,56,376.90
2013,05,31,12,57,362.80
2013,05,31,12,58,354.20
2013,05,31,12,59,345.20
2013,05,31,13,00,335.90
2013,05,31,13,01,329.80
2013,05,31,13,02,325.60
2013,05,31,13,03,325.00
2013,05,31,13,04,320.30
2013,05,31,13,05,318.10
2013,05,31,13,06,320.70
2013,05,31,13,07,334.80
2013,05,31,13,08,340.90
2013,05,31,13,09,352.00
2013,05,31,13,10,367.00
2013,05,31,13,11,367.00
2013,05,31,13,12,366.00
2013,05,31,13,13,364.70
2013,05,31,13,14,382.80
2013,05,31,13,15,380.40
2013,05,31,13,16,358.00
2013,05,31,13,17,345.50
2013,05,31,13,18,325.10
2013,05,31,13,19,321.30
2013,05,31,13,20,326.80
2013,05,31,13,21,336.00
2013,05,31,13,22,355.60
2013,05,31,13,23,400.00
2013,05,31,13,24,424.30
2013,05,31,13,25,416.30
2013,05,31,13,26,503.20
2013,05,31,13,27,607.00
2013,05,31,13,28,602.30
2013,05,31,13,29,427.20
2013,05,31,13,30,430.10
2013,05,31,13,31,422.90
2013,05,31,13,32,413.50
2013,05,31,13,33,407.50
2013,05,31,13,34,405.20
2013,05,31,13,35,400.80
2013,05,31,13,36,393.10
2013,05,31,13,37,384.60
2013,05,31,13,38,376.90
2013,05,31,13,39,369.80
2013,05,31,13,40,362.80
2013,05,31,13,41,353.80
2013,05,31,13,42,344.30
2013,05,31,13,43,335.10
2013,05,31,13,44,328.30
2013,05,31,13,45,324.10
2013,05,31,13,46,323.00
2013,05,31,13,47,323.00
2013,05,31,13,48,324.70
2013,05,31,13,49,329.50
2013,05,31,13,50,333.80
2013,05,31,13,51,338.00
2013,05,31,13,52,339.40
2013,05,31,13,53,343.00
2013,05,31,13,54,343.50
2013,05,31,13,55,346.80
2013,05,31,13,56,350.50
2013,05,31,13,57,352.30
2013,05,31,13,58,353.70
2013,05,31,13,59,355.70
2013,05,31,14,00,357.80
2013,05,31,14,01,359.50
2013,05,31,14,02,361.90
2013,05,31,14,03,365.60
2013,05,31,14,04,369.30
2013,05,31,14,05,372.90
2013,05,31,14,06,376.60
2013,05,31,14,07,381.70
2013,05,31,14,08,389.60
2013,05,31,14,09,401.50
2013,05,31,14,10,414.90
2013,05,31,14,11,429.60
2013,05,31,14,12,446.30
2013,05,31,14,13,468.00
2013,05,31,14,14,497.00
2013,05,31,14,15,516.30
2013,05,31,14,16,528.70
2013,05,31,14,17,545.20
2013,05,31,14,18,558.90
2013,05,31,14,19,574.80
2013,05,31,14,20,608.00
2013,05,31,14,21,608.00
2013,05,31,14,22,665.80
2013,05,31,14,23,773.00
2013,05,31,14,24,773.00
2013,05,31,14,25,779.50
2013,05,31,14,26,786.00
2013,05,31,14,27,786.00
2013,05,31,14,28,724.70
2013,05,31,14,29,723.70
2013,05,31,14,30,713.90
2013,05,31,14,31,685.50
2013,05,31,14,32,692.60
2013,05,31,14,33,728.80
2013,05,31,14,34,737.00
2013,05,31,14,35,737.00
2013,05,31,14,36,737.00
2013,05,31,14,37,737.00
2013,05,31,14,38,739.70
2013,05,31,14,39,789.00
2013,05,31,14,40,762.90
2013,05,31,14,41,618.50
2013,05,31,14,42,597.50
2013,05,31,14,43,578.90
2013,05,31,14,44,520.50
2013,05,31,14,45,498.90
2013,05,31,14,46,509.10
2013,05,31,14,47,527.00
2013,05,31,14,48,527.00
2013,05,31,14,49,950.50
2013,05,31,14,50,1274.90
2013,05,31,14,51,1262.00
2013,05,31,14,52,1262.00
2013,05,31,14,53,1121.10
2013,05,31,14,54,1056.00
2013,05,31,14,55,1056.00
2013,05,31,14,56,1056.00
2013,05,31,14,57,1056.00
2013,05,31,14,58,457.40
2013,05,31,14,59,378.50
2013,05,31,15,00,371.10
2013,05,31,15,01,376.90
2013,05,31,15,02,410.00
2013,05,31,15,03,410.00
2013,05,31,15,04,410.00
2013,05,31,15,05,410.00
2013,05,31,15,06,410.80
2013,05,31,15,07,398.20
2013,05,31,15,08,357.60
2013,05,31,15,09,343.30
2013,05,31,15,10,340.10
2013,05,31,15,11,339.00
2013,05,31,15,12,342.70
2013,05,31,15,13,346.00
2013,05,31,15,14,347.20
2013,05,31,15,15,346.70
2013,05,31,15,16,345.30
2013,05,31,15,17,345.00
2013,05,31,15,18,341.80
2013,05,31,15,19,342.60
2013,05,31,15,20,344.70
2013,05,31,15,21,345.00
2013,05,31,15,22,345.00
2013,05,31,15,23,343.00
2013,05,31,15,24,343.20
2013,05,31,15,25,345.50
2013,05,31,15,26,350.80
2013,05,31,15,27,357.20
2013,05,31,15,28,368.50
2013,05,31,15,29,381.70
2013,05,31,15,30,398.90
2013,05,31,15,31,423.50
2013,05,31,15,32,438.00
2013,05,31,15,33,438.00
2013,05,31,15,34,806.00
2013,05,31,15,35,1174.00
2013,05,31,15,36,1174.00
2013,05,31,15,37,1174.00
2013,05,31,15,38,1174.00
2013,05,31,15,39,744.40
2013,05,31,15,40,634.50
2013,05,31,15,41,579.10
2013,05,31,15,42,544.10
2013,05,31,15,43,533.70
2013,05,31,15,44,527.60
2013,05,31,15,45,515.60
2013,05,31,15,46,500.60
2013,05,31,15,47,493.90
2013,05,31,15,48,494.20
2013,05,31,15,49,512.50
2013,05,31,15,50,510.40
2013,05,31,15,51,512.00
2013,05,31,15,52,532.80
2013,05,31,15,53,591.00
2013,05,31,15,54,722.90
2013,05,31,15,55,949.00
2013,05,31,15,56,1006.80
2013,05,31,15,57,1058.20
2013,05,31,15,58,1038.50
2013,05,31,15,59,1019.50
2013,05,31,16,00,997.00
2013,05,31,16,01,970.50
2013,05,31,16,02,945.60
2013,05,31,16,03,923.20
2013,05,31,16,04,899.60
2013,05,31,16,05,875.50
2013,05,31,16,06,846.90
2013,05,31,16,07,838.60
2013,05,31,16,08,839.90
2013,05,31,16,09,837.90
2013,05,31,16,10,836.30
2013,05,31,16,11,832.90
2013,05,31,16,12,858.00
2013,05,31,16,13,797.40
2013,05,31,16,14,570.00
2013,05,31,16,15,570.00
2013,05,31,16,16,570.00
2013,05,31,16,17,434.40
2013,05,31,16,18,211.20
2013,05,31,16,19,239.20
2013,05,31,16,20,290.10
2013,05,31,16,21,361.10
2013,05,31,16,22,390.00
2013,05,31,16,23,301.60
2013,05,31,16,24,242.70
2013,05,31,16,25,237.60
2013,05,31,16,26,241.50
2013,05,31,16,27,247.00
2013,05,31,16,28,250.50
2013,05,31,16,29,252.70
2013,05,31,16,30,254.80
2013,05,31,16,31,259.70
2013,05,31,16,32,276.00
2013,05,31,16,33,276.00
2013,05,31,16,34,328.70
2013,05,31,16,35,803.00
2013,05,31,16,36,701.40
2013,05,31,16,37,296.80
2013,05,31,16,38,301.10
2013,05,31,16,39,303.20
2013,05,31,16,40,327.20
2013,05,31,16,41,355.00
2013,05,31,16,42,355.00
2013,05,31,16,43,355.00
2013,05,31,16,44,355.00
2013,05,31,16,45,289.00
2013,05,31,16,46,229.60
2013,05,31,16,47,213.40
2013,05,31,16,48,199.40
2013,05,31,16,49,186.20
2013,05,31,16,50,175.90
2013,05,31,16,51,168.40
2013,05,31,16,52,162.50
2013,05,31,16,53,156.60
2013,05,31,16,54,155.10
2013,05,31,16,55,155.00
2013,05,31,16,56,155.00
2013,05,31,16,57,154.80
2013,05,31,16,58,153.00
2013,05,31,16,59,153.00
2013,05,31,17,00,153.00
2013,05,31,17,01,153.50
2013,05,31,17,02,155.90
2013,05,31,17,03,158.70
2013,05,31,17,04,161.30
2013,05,31,17,05,164.70
2013,05,31,17,06,167.90
2013,05,31,17,07,170.10
2013,05,31,17,08,172.70